Estación Meteorológica Peña el Pijo (Robertgarden) [ 07/11/20 22:16:29 CEST ]

Fecha Hora Presion(HPa) Temp (°C) Humedad % Rocio (°C) Viento ( m/s) Direccion Lluvia 1Hora(mm) Lluvia 24H(mm) LLuvia Total(mm)
2020-May-04 01:09:40 1010.400 - - - - W     39.88
2020-May-04 02:09:09 1009.700 - - - - W     39.88
2020-May-04 03:09:11 1009.200 - - - - W     39.88
2020-May-04 04:08:48 1008.700 - - - - W     39.88
2020-May-04 05:08:58 1008.500 - - - - W     39.88
2020-May-04 06:08:33 1008.300 - - - - W     39.88
2020-May-04 07:09:34 1008.400 - - - - W     39.88
2020-May-04 08:10:00 1008.800 - - - - W     39.88
2020-May-04 09:09:36 1009.000 - - - - W     39.88
2020-May-04 10:10:27 1008.800 - - - - W     39.88
2020-May-04 11:09:23 1008.100 - - - - W     39.88
2020-May-04 12:09:25 1007.800 - - - - W     39.88
2020-May-04 13:09:18 1007.500 - - - - W     39.88
2020-May-04 14:09:36 1007.100 - - - - W     39.88
2020-May-04 15:08:45 1007.000 - - - - W     39.88
2020-May-04 16:08:51 1006.800 - - - - W     39.88
2020-May-04 17:09:02 1006.500 - - - - W     39.88
2020-May-04 18:09:24 1006.400 - - - - W     39.88
2020-May-04 19:09:25 1006.300 - - - - W     39.88
2020-May-04 20:09:22 1006.500 - - - - W     39.88
2020-May-04 21:09:25 1007.400 - - - - W     39.88
2020-May-04 22:09:04 1008.600 - - - - W     39.88
2020-May-04 23:09:12 1009.100 - - - - W     39.88

Temperatura Máxima:    Temperatura Mínima:
Presión Máxima:1010.400 Hpa    Presión Mínima:1006.300 Hpa


Volver